DW1818 Weather Reports


time (UTC)temp
C
wind
direction
speed
KPH
gust
KPH
rain 1hr
cm
rain 24hr
cm
rain mn
cm
humidity
%
barometer
mb
20260504044532 4 44 4.8 0.0 0.00 0.00 0.00 100 1013.7
20260504043025 4 57 4.8 0.0 0.00 0.00 0.00 100 1013.5
20260504041519 5 52 3.2 0.0 0.00 0.00 0.00 100 1013.6
20260504040016 5 320 3.2 0.0 0.00 0.00 0.00 100 1013.5
20260504034516 5 320 3.2 0.0 0.00 0.00 0.00 100 1013.6
20260504033015 6 239 0.0 0.0 0.00 0.00 0.00 100 1013.6
20260504031514 6 239 1.6 0.0 0.00 0.00 0.00 100 1013.4
20260504030015 7 239 1.6 0.0 0.00 0.00 0.00 100 1013.4
20260504024513 7 239 1.6 0.0 0.00 0.00 0.00 100 1013.3
20260504023013 7 240 3.2 0.0 0.00 0.00 0.00 100 1013.2
20260504021512 8 266 3.2 0.0 0.00 0.00 0.00 100 1013.4
20260504020012 8 224 1.6 0.0 0.00 0.00 0.00 100 1013.5
20260504014524 9 224 4.8 0.0 0.00 0.00 0.00 100 1013.4
20260504013013 10 265 8.0 0.0 0.00 0.00 0.00 100 1013.2
20260504011506 11 253 6.4 0.0 0.00 0.00 0.00 100 1013.0
20260504010002 11 265 6.4 0.0 0.00 0.00 0.00 100 1012.9
20260504004558 12 249 8.0 0.0 0.00 0.00 0.00 100 1012.8
20260504003053 13 240 9.7 0.0 0.00 0.00 0.00 100 1012.7
20260504001558 13 235 11.3 0.0 0.00 0.00 0.00 100 1012.6
20260504000048 13 254 12.9 0.0 0.00 0.00 0.00 100 1012.4
20260503234540 14 232 11.3 0.0 0.00 0.00 0.00 100 1012.2
20260503233036 15 231 11.3 0.0 0.00 0.00 0.00 100 1012.3
20260503231531 15 250 12.9 0.0 0.00 0.00 0.00 100 1012.2
20260503230027 15 225 16.1 0.0 0.00 0.00 0.00 100 1012.2
20260503224526 15 255 17.7 0.0 0.00 0.00 0.00 100 1012.1
20260503223018 15 243 20.9 0.0 0.00 0.00 0.00 100 1012.1
20260503221513 15 225 16.1 0.0 0.00 0.00 0.00 100 1012.3
20260503220009 15 244 22.5 0.0 0.00 0.00 0.00 100 1012.4
20260503214518 15 165 17.7 0.0 0.00 0.00 0.00 100 1012.2
20260503213100 15 254 22.5 0.0 0.00 0.00 0.00 100 1012.1
20260503211556 15 248 19.3 0.0 0.00 0.00 0.00 100 1012.0
20260503210056 15 269 22.5 0.0 0.00 0.00 0.00 100 1012.1
20260503204601 15 244 17.7 0.0 0.00 0.00 0.00 100 1012.1
20260503203042 14 259 22.5 0.0 0.00 0.00 0.00 100 1012.1
20260503201539 15 235 22.5 0.0 0.00 0.00 0.00 100 1012.2
20260503200043 14 240 25.7 0.0 0.00 0.00 0.00 100 1012.3
20260503194530 14 254 20.9 0.0 0.00 0.00 0.00 100 1012.6
20260503193026 14 298 17.7 0.0 0.00 0.00 0.00 100 1012.7
20260503191521 14 240 24.1 0.0 0.00 0.00 0.00 100 1013.1
20260503190017 13 263 22.5 0.0 0.00 0.00 0.00 100 1013.2
20260503184517 13 278 22.5 0.0 0.00 0.00 0.00 100 1013.5
20260503183008 14 267 19.3 0.0 0.00 0.00 0.00 100 1013.4
20260503181505 13 315 17.7 0.0 0.00 0.00 0.00 100 1013.4
20260503180108 13 223 17.7 0.0 0.00 0.00 0.00 100 1013.4
20260503174555 13 267 11.3 0.0 0.00 0.00 0.00 100 1013.5
20260503173142 12 211 19.3 0.0 0.00 0.00 0.00 100 1013.6
20260503171548 12 259 16.1 0.0 0.00 0.00 0.00 100 1013.9
20260503081514 4 286 14.5 0.0 0.00 0.00 0.00 100 1014.3
20260503071554 5 284 17.7 0.0 0.00 0.00 0.00 100 1013.4